 day,  time,  air_temp(C),  RH(%),  ground_temp10cm(C),  ground_temp20cm(C),  ground_temp40cm(C),  precipitation(mm/h),  Solar_Radiation(MJ/m2h),  lack, 
 09/06/01, 01:00,   6.3, -9999,  13.5,  14.2,  13.3,   0.0,  0.00, 
 09/06/01, 02:00,   6.3, -9999,  13.2,  14.1,  13.2,   0.0,  0.00, 
 09/06/01, 03:00,   6.2, -9999,  13.0,  14.0,  13.2,   0.0,  0.00, 
 09/06/01, 04:00,   5.9, -9999,  12.8,  13.9,  13.3,   0.0,  0.00, 
 09/06/01, 05:00,   5.9, -9999,  12.6,  13.8,  13.3,   0.0,  0.00, 
 09/06/01, 06:00,   6.3, -9999,  12.5,  13.7,  13.3,   0.0,  0.05, 
 09/06/01, 07:00,   7.3, -9999,  12.4,  13.6,  13.3,   0.0,  0.76, 
 09/06/01, 08:00,   8.1, -9999,  12.3,  13.5,  13.2,   0.0,  1.76, 
 09/06/01, 09:00,  11.5, -9999,  12.9,  13.4,  13.2,   0.0,  2.63, 
 09/06/01, 10:00,  11.8, -9999,  13.6,  13.4,  13.2,   0.0,  2.33, 
 09/06/01, 11:00,  12.9, -9999,  14.4,  13.4,  13.2,   0.0,  3.08, 
 09/06/01, 12:00,  13.2, -9999,  15.3,  13.4,  13.2,   0.0,  2.10, 
 09/06/01, 13:00,  13.8, -9999,  16.2,  13.6,  13.2,   0.0,  3.04, 
 09/06/01, 14:00,  13.9, -9999,  16.5,  13.7,  13.2,   0.0,  3.01, 
 09/06/01, 15:00,  13.6, -9999,  16.4,  13.9,  13.2,   0.0,  2.27, 
 09/06/01, 16:00,  13.6, -9999,  16.3,  14.1,  13.1,   0.0,  2.18, 
 09/06/01, 17:00,  13.2, -9999,  16.5,  14.3,  13.1,   0.0,  1.82, 
 09/06/01, 18:00,  11.4, -9999,  16.5,  14.4,  13.0,   0.0,  1.05, 
 09/06/01, 19:00,  11.0, -9999,  16.1,  14.5,  13.0,   0.0,  0.28, 
 09/06/01, 20:00,   6.9, -9999,  15.5,  14.6,  13.1,   0.0,  0.00, 
 09/06/01, 21:00,   6.4, -9999,  15.0,  14.6,  13.1,   0.0,  0.00, 
 09/06/01, 22:00,   6.2, -9999,  14.5,  14.6,  13.1,   0.0,  0.00, 
 09/06/01, 23:00,   6.3, -9999,  14.0,  14.5,  13.1,   0.0,  0.00, 
 09/06/02, 00:00,   6.2, -9999,  13.6,  14.4,  13.1,   0.0,  0.00, 
 09/06/02, 01:00,   6.3, -9999,  13.2,  14.3,  13.2,   0.0,  0.00, 
 09/06/02, 02:00,   9.6, -9999,  12.8,  14.2,  13.2,   0.0,  0.00, 
 09/06/02, 03:00,   9.8, -9999,  12.5,  14.1,  13.2,   0.0,  0.00, 
 09/06/02, 04:00,   7.0, -9999,  12.2,  13.9,  13.2,   0.0,  0.00, 
 09/06/02, 05:00,   7.0, -9999,  12.0,  13.7,  13.1,   0.0,  0.00, 
 09/06/02, 06:00,   9.0, -9999,  11.7,  13.7,  13.1,   0.0,  0.21, 
 09/06/02, 07:00,  12.4, -9999,  11.6,  13.5,  13.2,   0.0,  0.98, 
 09/06/02, 08:00,  13.6, -9999,  11.7,  13.4,  13.1,   0.0,  1.80, 
 09/06/02, 09:00,  15.8, -9999,  12.4,  13.3,  13.1,   0.0,  2.22, 
 09/06/02, 10:00,  17.5, -9999,  13.2,  13.2,  13.2,   0.0,  3.05, 
 09/06/02, 11:00,  20.2, -9999,  14.4,  13.2,  13.2,   0.0,  3.52, 
 09/06/02, 12:00,  19.2, -9999,  15.9,  13.3,  13.2,   0.0,  2.96, 
 09/06/02, 13:00,  19.3, -9999,  16.9,  13.4,  13.1,   0.0,  2.67, 
 09/06/02, 14:00,  20.6, -9999,  17.2,  13.7,  13.1,   0.0,  3.35, 
 09/06/02, 15:00,  19.9, -9999,  17.2,  13.9,  13.1,   0.0,  2.66, 
 09/06/02, 16:00,  18.7, -9999,  17.2,  14.2,  13.1,   0.0,  1.56, 
 09/06/02, 17:00,  17.7, -9999,  17.4,  14.4,  13.1,   0.0,  0.97, 
 09/06/02, 18:00,  16.1, -9999,  17.2,  14.6,  13.1,   0.0,  0.59, 
 09/06/02, 19:00,  14.0, -9999,  17.0,  14.7,  13.1,   0.0,  0.15, 
 09/06/02, 20:00,  13.4, -9999,  16.5,  14.8,  13.1,   0.0,  0.00, 
 09/06/02, 21:00,  13.3, -9999,  16.1,  14.9,  13.1,   0.0,  0.00, 
 09/06/02, 22:00,  12.6, -9999,  15.7,  14.9,  13.1,   0.0,  0.00, 
 09/06/02, 23:00,  11.4, -9999,  15.4,  14.9,  13.1,   0.0,  0.00, 
 09/06/03, 00:00,  10.0, -9999,  15.2,  14.9,  13.1,   0.0,  0.00, 
 09/06/03, 01:00,   9.9, -9999,  14.9,  14.8,  13.2,   0.0,  0.00, 
 09/06/03, 02:00,   9.9, -9999,  14.5,  14.8,  13.2,   0.0,  0.00, 
 09/06/03, 03:00,  10.1, -9999,  14.4,  14.7,  13.2,   0.0,  0.00, 
 09/06/03, 04:00,  10.5, -9999,  14.2,  14.6,  13.2,   0.0,  0.00, 
 09/06/03, 05:00,  11.4, -9999,  13.9,  14.5,  13.2,   0.0,  0.00, 
 09/06/03, 06:00,  11.6, -9999,  13.8,  14.4,  13.2,   0.0,  0.01, 
 09/06/03, 07:00,  12.8, -9999,  13.7,  14.3,  13.3,   0.0,  0.19, 
 09/06/03, 08:00,  11.8, -9999,  13.6,  14.2,  13.3,   0.0,  0.42, 
 09/06/03, 09:00,  12.8, -9999,  13.7,  14.2,  13.3,   0.0,  0.72, 
 09/06/03, 10:00,  14.2, -9999,  13.7,  14.1,  13.3,   0.0,  1.31, 
 09/06/03, 11:00,  15.5, -9999,  14.2,  14.0,  13.3,   0.0,  1.66, 
 09/06/03, 12:00,  16.7, -9999,  14.5,  14.0,  13.3,   0.0,  2.36, 
 09/06/03, 13:00,  16.1, -9999,  15.2,  14.0,  13.3,   0.0,  1.58, 
 09/06/03, 14:00,  14.7, -9999,  15.4,  14.0,  13.3,   0.0,  1.07, 
 09/06/03, 15:00,  14.2, -9999,  15.4,  14.1,  13.3,   0.0,  0.67, 
 09/06/03, 16:00,  13.3, -9999,  15.5,  14.2,  13.3,   0.0,  0.59, 
 09/06/03, 17:00,  12.5, -9999,  15.3,  14.3,  13.3,   0.0,  0.30, 
 09/06/03, 18:00,  11.3, -9999,  15.1,  14.3,  13.3,   0.0,  0.05, 
 09/06/03, 19:00,  11.6, -9999,  14.9,  14.3,  13.3,   0.0,  0.00, 
 09/06/03, 20:00,  10.9, -9999,  14.7,  14.3,  13.3,   0.0,  0.00, 
 09/06/03, 21:00,  10.8, -9999,  14.5,  14.3,  13.3,   0.0,  0.00, 
 09/06/03, 22:00,  10.3, -9999,  14.3,  14.3,  13.3,   0.0,  0.00, 
 09/06/03, 23:00,  10.2, -9999,  14.1,  14.3,  13.3,   0.0,  0.00, 
 09/06/04, 00:00,   9.9, -9999,  13.9,  14.2,  13.3,   0.0,  0.00, 
 09/06/04, 01:00,   9.9, -9999,  13.7,  14.2,  13.3,   0.0,  0.00, 
 09/06/04, 02:00,   9.0, -9999,  13.5,  14.1,  13.3,   0.0,  0.00, 
 09/06/04, 03:00,   9.7, -9999,  13.4,  14.0,  13.3,   0.0,  0.00, 
 09/06/04, 04:00,   9.8, -9999,  13.2,  13.9,  13.3,   0.0,  0.00, 
 09/06/04, 05:00,   9.4, -9999,  13.1,  13.9,  13.3,   0.0,  0.00, 
 09/06/04, 06:00,   9.3, -9999,  13.0,  13.8,  13.3,   0.0,  0.00, 
 09/06/04, 07:00,  10.3, -9999,  13.0,  13.7,  13.3,   0.0,  0.26, 
 09/06/04, 08:00,  10.9, -9999,  13.0,  13.7,  13.3,   0.0,  0.76, 
 09/06/04, 09:00,  12.9, -9999,  13.1,  13.6,  13.3,   0.0,  1.14, 
 09/06/04, 10:00,  15.2, -9999,  13.5,  13.5,  13.3,   0.0,  2.16, 
 09/06/04, 11:00,  14.6, -9999,  14.2,  13.5,  13.2,   0.0,  2.33, 
 09/06/04, 12:00,  17.2, -9999,  15.0,  13.5,  13.2,   0.0,  2.34, 
 09/06/04, 13:00,  17.9, -9999,  15.8,  13.6,  13.2,   0.0,  3.03, 
 09/06/04, 14:00,  19.2, -9999,  16.5,  13.7,  13.2,   0.0,  2.64, 
 09/06/04, 15:00,  19.3, -9999,  16.8,  13.9,  13.2,   0.0,  2.51, 
 09/06/04, 16:00,  16.9, -9999,  17.1,  14.1,  13.2,   0.0,  1.76, 
 09/06/04, 17:00,  14.9, -9999,  17.2,  14.3,  13.2,   0.0,  0.33, 
 09/06/04, 18:00,  14.2, -9999,  17.0,  14.5,  13.2,   0.0,  0.15, 
 09/06/04, 19:00,  13.5, -9999,  16.7,  14.6,  13.2,   0.0,  0.01, 
 09/06/04, 20:00,  12.8, -9999,  16.4,  14.7,  13.2,   0.0,  0.00, 
 09/06/04, 21:00,  12.5, -9999,  16.1,  14.8,  13.3,   0.0,  0.00, 
 09/06/04, 22:00,  12.3, -9999,  15.8,  14.8,  13.2,   0.0,  0.00, 
 09/06/04, 23:00,  12.3, -9999,  15.6,  14.8,  13.2,   0.0,  0.00, 
 09/06/05, 00:00,  12.2, -9999,  15.4,  14.8,  13.2,   0.0,  0.00, 
 09/06/05, 01:00,  12.0, -9999,  15.2,  14.8,  13.3,   0.0,  0.00, 
 09/06/05, 02:00,  11.8, -9999,  15.0,  14.7,  13.4,   0.0,  0.00, 
 09/06/05, 03:00,  11.4, -9999,  14.9,  14.7,  13.3,   0.0,  0.00, 
 09/06/05, 04:00,  11.6, -9999,  14.7,  14.6,  13.4,   0.0,  0.00, 
 09/06/05, 05:00,  11.2, -9999,  14.6,  14.6,  13.3,   0.0,  0.00, 
 09/06/05, 06:00,  11.4, -9999,  14.4,  14.5,  13.3,   0.0,  0.00, 
 09/06/05, 07:00,  11.7, -9999,  14.3,  14.5,  13.3,   0.0,  0.10, 
 09/06/05, 08:00,  12.0, -9999,  14.3,  14.4,  13.3,   0.0,  0.24, 
 09/06/05, 09:00,  12.5, -9999,  14.3,  14.4,  13.3,   0.0,  0.36, 
 09/06/05, 10:00,  12.9, -9999,  14.3,  14.3,  13.4,   0.0,  0.41, 
 09/06/05, 11:00,  13.0, -9999,  14.4,  14.3,  13.4,   0.0,  0.46, 
 09/06/05, 12:00,  13.7, -9999,  14.6,  14.3,  13.4,   0.0,  0.61, 
 09/06/05, 13:00,  13.5, -9999,  14.7,  14.2,  13.4,   0.5,  0.46, 
 09/06/05, 14:00,  13.5, -9999,  14.8,  14.2,  13.5,   0.0,  0.55, 
 09/06/05, 15:00,  13.0, -9999,  14.9,  14.2,  13.5,   0.0,  0.14, 
 09/06/05, 16:00,  13.1, -9999,  14.9,  14.3,  13.5,   0.0,  0.24, 
 09/06/05, 17:00,  12.8, -9999,  14.9,  14.3,  13.5,   0.0,  0.20, 
 09/06/05, 18:00,  12.8, -9999,  14.8,  14.3,  13.4,   0.5,  0.12, 
 09/06/05, 19:00,  12.2, -9999,  14.7,  14.3,  13.4,   0.0,  0.06, 
 09/06/05, 20:00,  12.1, -9999,  14.6,  14.3,  13.4,   0.0,  0.00, 
 09/06/05, 21:00,  12.0, -9999,  14.5,  14.3,  13.4,   0.0,  0.00, 
 09/06/05, 22:00,  11.6, -9999,  14.4,  14.3,  13.5,   0.0,  0.00, 
 09/06/05, 23:00,  11.9, -9999,  14.3,  14.3,  13.4,   0.0,  0.00, 
 09/06/06, 00:00,  11.3, -9999,  14.1,  14.2,  13.5,   0.0,  0.00, 
 09/06/06, 01:00,  10.4, -9999,  14.0,  14.2,  13.4,   0.0,  0.00, 
 09/06/06, 02:00,   9.9, -9999,  13.8,  14.1,  13.4,   0.0,  0.00, 
 09/06/06, 03:00,  10.6, -9999,  13.6,  14.1,  13.4,   0.0,  0.00, 
 09/06/06, 04:00,  10.9, -9999,  13.5,  14.0,  13.4,   0.0,  0.00, 
 09/06/06, 05:00,   9.7, -9999,  13.4,  14.0,  13.4,   0.0,  0.00, 
 09/06/06, 06:00,  10.6, -9999,  13.3,  13.9,  13.4,   0.0,  0.13, 
 09/06/06, 07:00,  11.5, -9999,  13.2,  13.9,  13.4,   0.0,  0.77, 
 09/06/06, 08:00,  12.3, -9999,  13.3,  13.8,  13.4,   0.0,  0.75, 
 09/06/06, 09:00,  14.9, -9999,  13.6,  13.7,  13.4,   0.0,  2.20, 
 09/06/06, 10:00,  14.9, -9999,  14.3,  13.7,  13.3,   0.0,  1.21, 
 09/06/06, 11:00,  16.1, -9999,  14.7,  13.7,  13.3,   0.0,  1.54, 
 09/06/06, 12:00,  17.3, -9999,  15.3,  13.8,  13.3,   0.0,  2.47, 
 09/06/06, 13:00,  18.1, -9999,  16.3,  13.9,  13.3,   0.0,  3.12, 
 09/06/06, 14:00,  17.7, -9999,  17.0,  14.0,  13.4,   0.0,  2.97, 
 09/06/06, 15:00,  18.5, -9999,  17.3,  14.2,  13.3,   0.0,  2.32, 
 09/06/06, 16:00,  16.3, -9999,  17.6,  14.4,  13.3,   0.0,  1.08, 
 09/06/06, 17:00,  14.5, -9999,  17.5,  14.5,  13.4,   0.0,  0.24, 
 09/06/06, 18:00,  13.8, -9999,  17.2,  14.7,  13.4,   0.0,  0.14, 
 09/06/06, 19:00,  13.2, -9999,  16.9,  14.9,  13.4,   0.0,  0.00, 
 09/06/06, 20:00,  12.9, -9999,  16.6,  15.0,  13.4,   0.0,  0.00, 
 09/06/06, 21:00,  12.3, -9999,  16.3,  15.0,  13.3,   0.0,  0.00, 
 09/06/06, 22:00,  12.1, -9999,  16.1,  15.1,  13.4,   0.0,  0.00, 
 09/06/06, 23:00,  11.8, -9999,  15.8,  15.1,  13.4,   0.0,  0.00, 
 09/06/07, 00:00,  11.4, -9999,  15.6,  15.0,  13.4,   0.0,  0.00, 
 09/06/07, 01:00,  11.3, -9999,  15.4,  15.0,  13.4,   0.0,  0.00, 
 09/06/07, 02:00,  11.1, -9999,  15.2,  15.0,  13.4,   0.0,  0.00, 
 09/06/07, 03:00,  10.9, -9999,  15.0,  14.9,  13.4,   0.0,  0.00, 
 09/06/07, 04:00,  10.5, -9999,  14.8,  14.9,  13.4,   0.0,  0.00, 
 09/06/07, 05:00,   9.6, -9999,  14.6,  14.8,  13.4,   0.0,  0.00, 
 09/06/07, 06:00,  10.3, -9999,  14.4,  14.7,  13.5,   0.0,  0.07, 
 09/06/07, 07:00,  11.4, -9999,  14.2,  14.7,  13.5,   0.0,  1.07, 
 09/06/07, 08:00,  11.8, -9999,  14.2,  14.6,  13.5,   0.0,  1.13, 
 09/06/07, 09:00,  14.3, -9999,  14.5,  14.5,  13.5,   0.0,  2.21, 
 09/06/07, 10:00,  15.0, -9999,  15.1,  14.5,  13.5,   0.0,  2.61, 
 09/06/07, 11:00,  17.0, -9999,  16.0,  14.5,  13.5,   0.0,  2.84, 
 09/06/07, 12:00,  16.4, -9999,  16.9,  14.5,  13.5,   0.0,  1.87, 
 09/06/07, 13:00,  16.7, -9999,  17.4,  14.6,  13.5,   0.0,  1.94, 
 09/06/07, 14:00,  17.9, -9999,  17.6,  14.8,  13.5,   0.0,  2.28, 
 09/06/07, 15:00,  17.2, -9999,  17.9,  14.9,  13.5,   0.0,  2.57, 
 09/06/07, 16:00,  17.1, -9999,  18.2,  15.1,  13.5,   0.0,  2.62, 
 09/06/07, 17:00,  16.7, -9999,  18.6,  15.3,  13.5,   0.0,  1.88, 
 09/06/07, 18:00,  14.6, -9999,  18.6,  15.4,  13.5,   0.0,  1.03, 
 09/06/07, 19:00,  13.0, -9999,  18.3,  15.6,  13.5,   0.0,  0.26, 
 09/06/07, 20:00,  12.5, -9999,  17.8,  15.7,  13.6,   0.0,  0.00, 
 09/06/07, 21:00,  12.2, -9999,  17.4,  15.8,  13.6,   0.0,  0.00, 
 09/06/07, 22:00,  11.7, -9999,  17.0,  15.8,  13.6,   0.0,  0.00, 
 09/06/07, 23:00,  11.4, -9999,  16.7,  15.8,  13.6,   0.0,  0.00, 
 09/06/08, 00:00,  11.2, -9999,  16.4,  15.8,  13.6,   0.0,  0.00, 
 09/06/08, 01:00,  11.2, -9999,  16.2,  15.7,  13.7,   0.0,  0.00, 
 09/06/08, 02:00,  11.0, -9999,  16.0,  15.7,  13.7,   0.0,  0.00, 
 09/06/08, 03:00,  10.7, -9999,  15.7,  15.6,  13.7,   0.0,  0.00, 
 09/06/08, 04:00,  10.6, -9999,  15.5,  15.5,  13.7,   0.0,  0.00, 
 09/06/08, 05:00,  10.6, -9999,  15.3,  15.5,  13.7,   0.0,  0.00, 
 09/06/08, 06:00,  12.3, -9999,  15.1,  15.4,  13.8,   0.0,  0.17, 
 09/06/08, 07:00,  12.7, -9999,  15.0,  15.3,  13.8,   0.0,  0.44, 
 09/06/08, 08:00,  14.7, -9999,  15.1,  15.2,  13.8,   0.0,  0.98, 
 09/06/08, 09:00,  13.4, -9999,  15.3,  15.1,  13.8,   0.0,  0.72, 
 09/06/08, 10:00,  16.3, -9999,  15.5,  15.1,  13.8,   0.0,  1.48, 
 09/06/08, 11:00,  16.1, -9999,  16.0,  15.1,  13.8,   0.0,  2.35, 
 09/06/08, 12:00,  19.1, -9999,  16.8,  15.1,  13.8,   0.0,  3.02, 
 09/06/08, 13:00,  20.6, -9999,  18.1,  15.1,  13.8,   0.0,  3.82, 
 09/06/08, 14:00,  20.3, -9999,  18.7,  15.2,  13.8,   0.0,  2.98, 
 09/06/08, 15:00,  16.3, -9999,  18.7,  15.4,  13.8,   0.0,  1.11, 
 09/06/08, 16:00,  17.7, -9999,  18.6,  15.6,  13.9,   0.0,  1.76, 
 09/06/08, 17:00,  17.9, -9999,  18.7,  15.8,  13.9,   0.0,  1.75, 
 09/06/08, 18:00,  15.7, -9999,  18.5,  15.9,  13.9,   0.0,  1.01, 
 09/06/08, 19:00,  14.0, -9999,  18.3,  16.0,  13.9,   0.0,  0.32, 
 09/06/08, 20:00,  11.4, -9999,  17.8,  16.1,  13.9,   0.0,  0.00, 
 09/06/08, 21:00,  10.8, -9999,  17.3,  16.2,  13.9,   0.0,  0.00, 
 09/06/08, 22:00,  10.7, -9999,  16.9,  16.2,  13.9,   0.0,  0.00, 
 09/06/08, 23:00,   9.8, -9999,  16.5,  16.1,  13.9,   0.0,  0.00, 
 09/06/09, 00:00,   9.9, -9999,  16.1,  16.1,  14.0,   0.0,  0.00, 
 09/06/09, 01:00,   9.7, -9999,  15.7,  16.0,  14.0,   0.0,  0.00, 
 09/06/09, 02:00,   9.7, -9999,  15.4,  15.9,  14.0,   0.0,  0.00, 
 09/06/09, 03:00,   9.6, -9999,  15.1,  15.8,  14.0,   0.0,  0.00, 
 09/06/09, 04:00,  10.2, -9999,  14.8,  15.7,  14.0,   0.0,  0.00, 
 09/06/09, 05:00,  10.0, -9999,  14.5,  15.5,  14.0,   0.0,  0.00, 
 09/06/09, 06:00,  10.5, -9999,  14.3,  15.4,  14.1,   0.0,  0.19, 
 09/06/09, 07:00,  12.8, -9999,  14.3,  15.3,  14.1,   0.0,  0.50, 
 09/06/09, 08:00,  14.2, -9999,  14.4,  15.2,  14.1,   0.0,  1.03, 
 09/06/09, 09:00,  14.7, -9999,  14.7,  15.1,  14.1,   0.0,  1.54, 
 09/06/09, 10:00,  16.2, -9999,  15.2,  15.0,  14.1,   0.0,  1.78, 
 09/06/09, 11:00,  17.1, -9999,  15.6,  15.0,  14.1,   0.0,  1.67, 
 09/06/09, 12:00,  17.5, -9999,  16.2,  15.0,  14.1,   0.0,  2.04, 
 09/06/09, 13:00,  17.7, -9999,  16.8,  15.0,  14.1,   0.0,  1.77, 
 09/06/09, 14:00,  17.0, -9999,  17.2,  15.1,  14.1,   0.0,  1.78, 
 09/06/09, 15:00,  18.4, -9999,  17.5,  15.2,  14.1,   0.0,  1.65, 
 09/06/09, 16:00,  17.7, -9999,  17.7,  15.3,  14.1,   0.0,  1.64, 
 09/06/09, 17:00,  17.3, -9999,  17.8,  15.5,  14.1,   0.0,  0.92, 
 09/06/09, 18:00,  16.0, -9999,  17.8,  15.6,  14.1,   0.0,  0.45, 
 09/06/09, 19:00,  14.8, -9999,  17.6,  15.7,  14.1,   0.0,  0.23, 
 09/06/09, 20:00,  13.3, -9999,  17.3,  15.8,  14.1,   0.0,  0.01, 
 09/06/09, 21:00,  13.3, -9999,  16.9,  15.8,  14.1,   0.0,  0.00, 
 09/06/09, 22:00,  13.7, -9999,  16.6,  15.8,  14.1,   0.0,  0.00, 
 09/06/09, 23:00,  13.3, -9999,  16.3,  15.8,  14.1,   0.0,  0.00, 
 09/06/10, 00:00,  13.9, -9999,  15.9,  15.8,  14.1,   0.0,  0.00, 
 09/06/10, 01:00,  13.9, -9999,  15.6,  15.7,  14.1,   0.0,  0.00, 
 09/06/10, 02:00,  13.4, -9999,  15.6,  15.7,  14.1,   0.0,  0.00, 
 09/06/10, 03:00,  12.4, -9999,  15.4,  15.6,  14.1,   0.0,  0.00, 
 09/06/10, 04:00,  13.1, -9999,  15.2,  15.5,  14.1,   0.0,  0.00, 
 09/06/10, 05:00,  12.6, -9999,  15.0,  15.4,  14.1,   0.0,  0.00, 
 09/06/10, 06:00,  13.0, -9999,  14.9,  15.4,  14.1,   0.0,  0.04, 
 09/06/10, 07:00,  14.0, -9999,  14.7,  15.3,  14.2,   0.0,  0.19, 
 09/06/10, 08:00,  14.1, -9999,  14.8,  15.2,  14.2,   0.0,  0.52, 
 09/06/10, 09:00,  15.1, -9999,  14.9,  15.1,  14.2,   0.0,  0.87, 
 09/06/10, 10:00,  15.5, -9999,  15.2,  15.1,  14.2,   0.0,  1.13, 
 09/06/10, 11:00,  16.3, -9999,  15.4,  15.0,  14.2,   0.0,  1.44, 
 09/06/10, 12:00,  16.1, -9999,  15.7,  15.0,  14.2,   0.0,  1.15, 
 09/06/10, 13:00,  16.7, -9999,  16.1,  15.0,  14.2,   0.0,  1.19, 
 09/06/10, 14:00,  16.1, -9999,  16.4,  15.1,  14.2,   0.0,  1.15, 
 09/06/10, 15:00,  14.3, -9999,  16.5,  15.1,  14.2,   0.0,  0.24, 
 09/06/10, 16:00,  13.5, -9999,  16.3,  15.2,  14.1,   0.0,  0.19, 
 09/06/10, 17:00,  12.5, -9999,  16.1,  15.3,  14.1,   0.0,  0.10, 
 09/06/10, 18:00,  11.3, -9999,  15.9,  15.3,  14.1,   0.0,  0.09, 
 09/06/10, 19:00,  10.8, -9999,  15.7,  15.3,  14.1,   0.5,  0.00, 
 09/06/10, 20:00,  11.1, -9999,  15.5,  15.3,  14.1,   1.5,  0.00, 
 09/06/10, 21:00,  11.0, -9999,  15.2,  15.3,  14.1,   1.0,  0.00, 
 09/06/10, 22:00,  11.2, -9999,  15.0,  15.2,  14.1,   1.0,  0.00, 
 09/06/10, 23:00,  11.4, -9999,  14.8,  15.2,  14.1,   2.0,  0.00, 
 09/06/11, 00:00,  11.9, -9999,  14.5,  15.1,  14.1,   2.0,  0.00, 
 09/06/11, 01:00,  11.5, -9999,  14.5,  15.0,  14.1,   2.5,  0.00, 
 09/06/11, 02:00,  11.9, -9999,  14.3,  15.0,  14.1,   3.5,  0.00, 
 09/06/11, 03:00,  12.4, -9999,  14.2,  14.9,  14.1,   3.0,  0.00, 
 09/06/11, 04:00,  11.8, -9999,  14.1,  14.8,  14.1,   1.5,  0.00, 
 09/06/11, 05:00,  12.2, -9999,  14.0,  14.7,  14.1,   2.0,  0.00, 
 09/06/11, 06:00,  12.8, -9999,  13.8,  14.7,  14.2,   0.0,  0.00, 
 09/06/11, 07:00,  13.0, -9999,  13.9,  14.6,  14.2,   0.0,  0.14, 
 09/06/11, 08:00,  13.0, -9999,  14.0,  14.5,  14.2,   0.0,  0.18, 
 09/06/11, 09:00,  12.9, -9999,  14.1,  14.5,  14.2,   1.0,  0.29, 
 09/06/11, 10:00,  13.9, -9999,  14.2,  14.4,  14.1,   1.0,  0.49, 
 09/06/11, 11:00,  14.3, -9999,  14.5,  14.4,  14.1,   0.0,  1.53, 
 09/06/11, 12:00,  12.0, -9999,  14.9,  14.4,  14.1,   7.0,  0.34, 
 09/06/11, 13:00,  13.1, -9999,  15.0,  14.4,  14.1,   0.0,  1.54, 
 09/06/11, 14:00,  13.8, -9999,  15.3,  14.4,  14.1,   0.0,  0.90, 
 09/06/11, 15:00,  15.3, -9999,  15.5,  14.5,  14.1,   0.0,  1.62, 
 09/06/11, 16:00,  14.7, -9999,  15.8,  14.5,  14.1,   0.0,  2.52, 
 09/06/11, 17:00,  13.6, -9999,  16.3,  14.6,  14.1,   0.0,  0.81, 
 09/06/11, 18:00,  13.8, -9999,  16.3,  14.7,  14.1,   0.0,  0.64, 
 09/06/11, 19:00,  11.7, -9999,  16.2,  14.8,  14.1,   0.0,  0.38, 
 09/06/11, 20:00,  10.5, -9999,  15.9,  14.9,  14.1,   0.0,  0.00, 
 09/06/11, 21:00,  10.0, -9999,  15.5,  14.9,  14.1,   0.0,  0.00, 
 09/06/11, 22:00,  10.4, -9999,  15.1,  14.9,  14.1,   0.0,  0.00, 
 09/06/11, 23:00,   8.7, -9999,  14.7,  14.9,  14.1,   0.0,  0.00, 
 09/06/12, 00:00,   8.8, -9999,  14.3,  14.9,  14.1,   0.0,  0.00, 
 09/06/12, 01:00,   7.1, -9999,  13.9,  14.8,  14.1,   0.0,  0.00, 
 09/06/12, 02:00,   8.6, -9999,  13.5,  14.7,  14.1,   0.0,  0.00, 
 09/06/12, 03:00,   9.1, -9999,  13.2,  14.6,  14.1,   0.0,  0.00, 
 09/06/12, 04:00,   7.1, -9999,  12.8,  14.5,  14.1,   0.0,  0.00, 
 09/06/12, 05:00,   7.8, -9999,  12.5,  14.3,  14.1,   0.0,  0.00, 
 09/06/12, 06:00,   8.9, -9999,  12.3,  14.2,  14.1,   0.0,  0.19, 
 09/06/12, 07:00,  12.7, -9999,  12.2,  14.1,  14.1,   0.0,  0.76, 
 09/06/12, 08:00,  13.3, -9999,  12.3,  14.0,  14.0,   0.0,  1.82, 
 09/06/12, 09:00,  15.1, -9999,  13.0,  13.9,  14.0,   0.0,  2.22, 
 09/06/12, 10:00,  17.6, -9999,  13.8,  13.8,  14.0,   0.0,  3.08, 
 09/06/12, 11:00,  19.9, -9999,  15.0,  13.8,  14.0,   0.0,  3.56, 
 09/06/12, 12:00,  20.2, -9999,  16.6,  13.8,  14.0,   0.0,  3.65, 
 09/06/12, 13:00,  18.9, -9999,  17.8,  14.0,  14.0,   0.0,  2.32, 
 09/06/12, 14:00,  19.6, -9999,  18.2,  14.3,  14.0,   0.0,  2.30, 
 09/06/12, 15:00,  19.3, -9999,  18.2,  14.6,  13.9,   0.0,  2.33, 
 09/06/12, 16:00,  19.9, -9999,  18.2,  14.8,  13.9,   0.0,  2.31, 
 09/06/12, 17:00,  18.1, -9999,  18.4,  15.1,  13.9,   0.0,  1.39, 
 09/06/12, 18:00,  16.8, -9999,  18.3,  15.3,  13.9,   0.0,  0.63, 
 09/06/12, 19:00,  15.5, -9999,  17.9,  15.4,  13.9,   0.0,  0.25, 
 09/06/12, 20:00,  14.5, -9999,  17.5,  15.5,  13.9,   0.0,  0.00, 
 09/06/12, 21:00,  14.1, -9999,  17.0,  15.6,  13.9,   0.0,  0.00, 
 09/06/12, 22:00,  14.0, -9999,  16.6,  15.7,  13.9,   0.0,  0.00, 
 09/06/12, 23:00,  13.5, -9999,  16.3,  15.6,  13.9,   0.0,  0.00, 
 09/06/13, 00:00,  13.3, -9999,  16.0,  15.6,  14.0,   0.0,  0.00, 
 09/06/13, 01:00,  13.4, -9999,  15.8,  15.6,  14.0,   0.0,  0.00, 
 09/06/13, 02:00,  13.5, -9999,  15.6,  15.5,  14.0,   0.0,  0.00, 
 09/06/13, 03:00,  13.0, -9999,  15.5,  15.4,  14.0,   0.0,  0.00, 
 09/06/13, 04:00,  13.2, -9999,  15.2,  15.4,  14.0,   0.0,  0.00, 
 09/06/13, 05:00,  12.8, -9999,  15.1,  15.3,  14.1,   0.0,  0.00, 
 09/06/13, 06:00,  13.6, -9999,  14.9,  15.2,  14.1,   0.0,  0.04, 
 09/06/13, 07:00,  14.3, -9999,  14.8,  15.2,  14.1,   0.0,  0.27, 
 09/06/13, 08:00,  15.5, -9999,  14.9,  15.1,  14.1,   0.0,  0.85, 
 09/06/13, 09:00,  15.7, -9999,  15.1,  15.0,  14.1,   0.0,  0.81, 
 09/06/13, 10:00,  18.1, -9999,  15.4,  15.0,  14.1,   0.0,  2.11, 
 09/06/13, 11:00,  17.5, -9999,  16.0,  15.0,  14.1,   0.0,  1.51, 
 09/06/13, 12:00,  18.7, -9999,  16.6,  15.0,  14.1,   0.0,  2.34, 
 09/06/13, 13:00,  18.7, -9999,  17.5,  15.0,  14.1,   0.0,  2.84, 
 09/06/13, 14:00,  20.1, -9999,  18.1,  15.2,  14.2,   0.0,  2.52, 
 09/06/13, 15:00,  21.2, -9999,  18.2,  15.4,  14.2,   0.0,  2.72, 
 09/06/13, 16:00,  20.5, -9999,  18.4,  15.5,  14.1,   0.0,  2.18, 
 09/06/13, 17:00,  20.0, -9999,  18.7,  15.6,  14.1,   0.0,  1.90, 
 09/06/13, 18:00,  17.5, -9999,  18.8,  15.8,  14.1,   0.0,  0.99, 
 09/06/13, 19:00,  15.8, -9999,  18.5,  15.9,  14.2,   0.0,  0.41, 
 09/06/13, 20:00,  13.4, -9999,  18.1,  16.0,  14.1,   0.0,  0.02, 
 09/06/13, 21:00,  12.5, -9999,  17.6,  16.1,  14.2,   0.0,  0.00, 
 09/06/13, 22:00,  12.5, -9999,  17.2,  16.1,  14.3,   0.0,  0.00, 
 09/06/13, 23:00,  12.5, -9999,  16.8,  16.1,  14.2,   0.0,  0.00, 
 09/06/14, 00:00,  12.9, -9999,  16.5,  16.1,  14.2,   0.0,  0.00, 
 09/06/14, 01:00,  12.4, -9999,  16.2,  16.1,  14.2,   0.0,  0.00, 
 09/06/14, 02:00,  12.9, -9999,  16.0,  16.0,  14.2,   0.0,  0.00, 
 09/06/14, 03:00,  12.4, -9999,  15.8,  15.9,  14.3,   0.0,  0.00, 
 09/06/14, 04:00,  13.3, -9999,  15.6,  15.8,  14.3,   0.0,  0.00, 
 09/06/14, 05:00,  13.3, -9999,  15.5,  15.7,  14.3,   0.0,  0.00, 
 09/06/14, 06:00,  13.8, -9999,  15.4,  15.7,  14.3,   0.0,  0.12, 
 09/06/14, 07:00,  14.5, -9999,  15.3,  15.6,  14.3,   0.0,  0.53, 
 09/06/14, 08:00,  15.6, -9999,  15.4,  15.5,  14.3,   0.0,  1.05, 
 09/06/14, 09:00,  17.5, -9999,  15.7,  15.4,  14.4,   0.0,  1.49, 
 09/06/14, 10:00,  17.5, -9999,  16.1,  15.4,  14.4,   0.0,  1.79, 
 09/06/14, 11:00,  18.7, -9999,  16.8,  15.4,  14.4,   0.0,  2.29, 
 09/06/14, 12:00,  18.1, -9999,  17.5,  15.4,  14.5,   0.0,  1.58, 
 09/06/14, 13:00,  19.2, -9999,  18.0,  15.5,  14.4,   0.0,  2.12, 
 09/06/14, 14:00,  18.2, -9999,  18.5,  15.6,  14.4,   0.0,  2.80, 
 09/06/14, 15:00,  16.5, -9999,  18.7,  15.8,  14.4,   0.0,  1.92, 
 09/06/14, 16:00,  17.5, -9999,  18.7,  16.0,  14.4,   0.0,  2.00, 
 09/06/14, 17:00,  16.2, -9999,  18.9,  16.1,  14.4,   0.0,  1.64, 
 09/06/14, 18:00,  13.6, -9999,  19.0,  16.2,  14.4,   0.0,  0.38, 
 09/06/14, 19:00,  12.8, -9999,  18.6,  16.4,  14.4,   0.0,  0.05, 
 09/06/14, 20:00,  11.7, -9999,  18.2,  16.5,  14.4,   0.0,  0.00, 
 09/06/14, 21:00,  10.7, -9999,  17.7,  16.5,  14.4,   0.0,  0.00, 
 09/06/14, 22:00,  10.0, -9999,  17.3,  16.5,  14.4,   0.0,  0.00, 
 09/06/14, 23:00,   9.8, -9999,  16.9,  16.5,  14.4,   0.0,  0.00, 
 09/06/15, 00:00,   9.9, -9999,  16.6,  16.5,  14.5,   0.0,  0.00, 
 09/06/15, 01:00,   8.9, -9999,  16.3,  16.4,  14.5,   0.0,  0.00, 
 09/06/15, 02:00,   8.9, -9999,  15.8,  16.3,  14.5,   0.0,  0.00, 
 09/06/15, 03:00,   8.5, -9999,  15.7,  16.2,  14.5,   0.0,  0.00, 
 09/06/15, 04:00,   8.1, -9999,  15.4,  16.1,  14.5,   0.0,  0.00, 
 09/06/15, 05:00,   7.5, -9999,  15.2,  16.0,  14.6,   0.0,  0.00, 
 09/06/15, 06:00,  11.3, -9999,  14.9,  15.9,  14.6,   0.0,  0.13, 
 09/06/15, 07:00,  10.4, -9999,  14.6,  15.8,  14.6,   0.0,  0.34, 
 09/06/15, 08:00,  11.7, -9999,  14.7,  15.6,  14.6,   0.0,  0.83, 
 09/06/15, 09:00,  15.2, -9999,  14.9,  15.5,  14.6,   0.0,  1.79, 
 09/06/15, 10:00,  16.8, -9999,  15.3,  15.4,  14.6,   0.0,  1.79, 
 09/06/15, 11:00,  18.1, -9999,  16.1,  15.4,  14.6,   0.0,  2.50, 
 09/06/15, 12:00,  18.6, -9999,  17.2,  15.4,  14.6,   0.0,  3.36, 
 09/06/15, 13:00,  18.5, -9999,  18.3,  15.5,  14.6,   0.0,  2.47, 
 09/06/15, 14:00,  19.0, -9999,  18.7,  15.6,  14.6,   0.0,  2.34, 